COSMOS 1275 DEB

Satellite information

Favourite Embed

Satellite Type and Status

DEBRISIN ORBIT

Key statistics

Satellite COSMOS 1275 DEB at a glance.

Uptime

16264

Days in orbit

Revolutions

≈ 14.3

Per day

Orbit

LEO

Low Earth Orbit

Inclination

83.0

Latest

Satellite identification and parameters

Extended collection of information and parameters for COSMOS 1275 DEB.

Object identification

Identified? True

Debris? True

Object name: COSMOS 1275 DEB

International designator: 1981-053N

Object number (NORAD): 12658

Object ID (CCSDS): 12658

Country: COMMONWEALTH OF INDEPENDENT STATES (CIS)

Current information (Y/N): Y

RCS size: SMALL

Orbital parameters

Period: 100.79 minutes

Inclination: 82.9687 deg

SMA: 7174.161 km

Apoapsis: 820.864 km

Periapsis: 771.189 km

RAAN: 292.246 deg

Eccentricy: 0.00346207

Argument of periapsis: 292.6809 deg

Mean anomaly: 190.8978 deg

Mean motion: 14.28716518 rev/day

Mean motion (dot): 0.00007039 rev/day2

B* drag term: 0.0027737301 1/REarth

Two-line elements (TLE)

Creation date: Dec. 14, 2025, 3:07 a.m.

Reference frame: TEME

Reference center: EARTH

Epoch: Dec. 13, 2025, 2:17 p.m. UTC

TLE line 0: 0 COSMOS 1275 DEB

TLE line 1: 1 12658U 81053N 25347.59581197 .00007039 00000-0 27737-2 0 9992

TLE line 2: 2 12658 82.9687 292.2460 0034621 292.6809 190.8978 14.28716518263726

Live tracking on map

Real-time ground track for satellite COSMOS 1275 DEB.

In-orbit conjunctions

A list of the most updated potential collisions computed for object COSMOS 1275 DEB.

Target Orbit TCA Probability of collision Miss distance Type
CZ-6A DEB LEO 2025-08-24 10:53:34 0.0001867301 271.0 (m) DEBRIS
FENGYUN 1C DEB SSO 2025-06-29 15:47:14 0.0004146957 56.0 (m) DEBRIS
CZ-6A DEB SSO 2025-06-23 16:29:14 0.0004285362 32.0 (m) DEBRIS
FENGYUN 1C DEB SSO 2024-11-11 05:03:55 0.0001354055 687.0 (m) DEBRIS
FENGYUN 1C DEB SSO 2024-11-09 03:16:14 0.0003559256 565.0 (m) DEBRIS

Associated space launch

Navigation satellite providing location information for the Tsiklon-B navigation system

COSMOS 1275 DEB was lifted into orbit during the mission ‘Kosmos-3M | Parus 27’, on board a Kosmos-3M space rocket.

The launch took place on June 4, 1981, 3:41 p.m. from 132/2.

For more information about the launch, click the button.

Launch to space Kosmos-3M | Parus 27
Kosmos-3M | Parus 27

Agency: N/A

Status: Launch Successful

Launch date: June 4, 1981, 3:41 p.m. UTC

Rocket: Kosmos-3M

Launch pad: 132/2

Location: Plesetsk Cosmodrome, Russian Federation

...

Latest news about this satellite

There are no fresh news available about this satellite. Check back as we update our databases every day.


Newsletter sign-up

Weekly statistics, charts and insights to help you stay on top of the space industry.